sat.trackr.live / text

‹ back to catalog

2024-173A

NORAD 61227 · 2024-173A

PAYLOAD ACTIVE UNKNOWN

§ Identity

Operator
Country
PRC
Launch date
2024-09-24
Launch site
YSLA
Launch vehicle
Mass (kg)
RCS (m²)

External: N2YO · Heavens-Above · Gunter

§ Orbital elements

Epoch: 2026-05-25T04:31:55.559136Z

Period
91.95 min
Inclination
97.3402°
Eccentricity
0.0002276
Mean motion
15.66021875 rev/d
Perigee alt
368.8 km
Apogee alt
371.8 km
Semi-major
6,748.4 km
B*
8.2886e-4
RAAN
232.0012°
Arg perigee
295.6994°
Mean anomaly
64.4031°
Rev number
9,346

§ Raw data

2024-173A1 61227U 24173A   26145.18883749  .00085244  00000+0  82886-3 0  99982 61227  97.3402 232.0012 0002276 295.6994  64.4031 15.66021875 93467

JSON: /api/v1/satellites/61227 · /tle

For live sub-satellite position, see the globe view (requires WebGL).

§ Visibility from observer

Set your observer location to see the next 7 days of passes ≥ 10°. The values pass through the URL so the page stays shareable.

No JS? Fill the form by hand. The geolocation button needs JavaScript.